sat.trackr.live / text

‹ back to catalog

STARLINK-1542

NORAD 46073 · 2020-055AY

PAYLOAD ACTIVE UNKNOWN

§ Identity

Operator
Country
US
Launch date
2020-08-07
Launch site
AFETR
Launch vehicle
Mass (kg)
RCS (m²)

Purposes: comms

External: N2YO · Heavens-Above · Gunter

§ Orbital elements

Epoch: 2026-09-19T17:20:59.379936Z

Period
94.01 min
Inclination
53.1587°
Eccentricity
0.0001464
Mean motion
15.31694795 rev/d
Perigee alt
469.8 km
Apogee alt
471.8 km
Semi-major
6,848.9 km
B*
4.2018e-8
RAAN
281.7386°
Arg perigee
92.7434°
Mean anomaly
267.3735°
Rev number
33,891

§ Raw data

STARLINK-15421 46073U 20055AY  26262.72290949 -.00000364  00000+0  42018-7 0  99972 46073  53.1587 281.7386 0001464  92.7434 267.3735 15.31694795338917

JSON: /api/v1/satellites/46073 · /tle

For live sub-satellite position, see the globe view (requires WebGL).

§ Visibility from observer

Set your observer location to see the next 7 days of passes ≥ 10°. The values pass through the URL so the page stays shareable.

No JS? Fill the form by hand. The geolocation button needs JavaScript.